����������;��������(kWh)
2018-09-03 00:00;81,6
2018-09-03 00:15;83
2018-09-03 00:30;80,55
2018-09-03 00:45;79,9
2018-09-03 01:00;81,6
2018-09-03 01:15;80
2018-09-03 01:30;82,05
2018-09-03 01:45;79,9
2018-09-03 02:00;79,35
2018-09-03 02:15;80,45
2018-09-03 02:30;79,45
2018-09-03 02:45;78,7
2018-09-03 03:00;80,65
2018-09-03 03:15;78,15
2018-09-03 03:30;79,6
2018-09-03 03:45;87,05
2018-09-03 04:00;90,3
2018-09-03 04:15;91
2018-09-03 04:30;89,55
2018-09-03 04:45;91,95
2018-09-03 05:00;92,95
2018-09-03 05:15;92,3
2018-09-03 05:30;93,85
2018-09-03 05:45;92,45
2018-09-03 06:00;92,3
2018-09-03 06:15;89,55
2018-09-03 06:30;98,15
2018-09-03 06:45;116
2018-09-03 07:00;115,4
2018-09-03 07:15;108,15
2018-09-03 07:30;158,7
2018-09-03 07:45;161,1
2018-09-03 08:00;164,2
2018-09-03 08:15;151,85
2018-09-03 08:30;147
2018-09-03 08:45;161,9
2018-09-03 09:00;165,4
2018-09-03 09:15;168,05
2018-09-03 09:30;197,45
2018-09-03 09:45;186,35
2018-09-03 10:00;212,25
2018-09-03 10:15;207,25
2018-09-03 10:30;225,75
2018-09-03 10:45;222,3
2018-09-03 11:00;236,7
2018-09-03 11:15;238,55
2018-09-03 11:30;245
2018-09-03 11:45;241,7
2018-09-03 12:00;239,3
2018-09-03 12:15;248,45
2018-09-03 12:30;237,3
2018-09-03 12:45;257,35
2018-09-03 13:00;249,65
2018-09-03 13:15;260,8
2018-09-03 13:30;246,1
2018-09-03 13:45;255,2
2018-09-03 14:00;265,75
2018-09-03 14:15;241,65
2018-09-03 14:30;255,25
2018-09-03 14:45;233,4
2018-09-03 15:00;235,85
2018-09-03 15:15;225,8
2018-09-03 15:30;233,85
2018-09-03 15:45;225,8
2018-09-03 16:00;213,35
2018-09-03 16:15;213,25
2018-09-03 16:30;220,75
2018-09-03 16:45;193,85
2018-09-03 17:00;204,05
2018-09-03 17:15;192,75
2018-09-03 17:30;187,8
2018-09-03 17:45;190,15
2018-09-03 18:00;188,55
2018-09-03 18:15;184,35
2018-09-03 18:30;176,35
2018-09-03 18:45;177,95
2018-09-03 19:00;173,8
2018-09-03 19:15;157,8
2018-09-03 19:30;152,2
2018-09-03 19:45;153,65
2018-09-03 20:00;145,25
2018-09-03 20:15;131,2
2018-09-03 20:30;131,3
2018-09-03 20:45;129,3
2018-09-03 21:00;122,7
2018-09-03 21:15;114,3
2018-09-03 21:30;108,75
2018-09-03 21:45;102,7
2018-09-03 22:00;96,15
2018-09-03 22:15;93,7
2018-09-03 22:30;92,55
2018-09-03 22:45;93,5
2018-09-03 23:00;94,85
2018-09-03 23:15;92,9
2018-09-03 23:30;89,7
2018-09-03 23:45;92
2018-09-04 00:00;85,85
2018-09-04 00:15;85,25
2018-09-04 00:30;85,7
2018-09-04 00:45;85,3
2018-09-04 01:00;86,2
2018-09-04 01:15;84,2
2018-09-04 01:30;84
2018-09-04 01:45;82,65
2018-09-04 02:00;80,8
2018-09-04 02:15;81
2018-09-04 02:30;80,25
2018-09-04 02:45;80,95
2018-09-04 03:00;80,4
2018-09-04 03:15;81,85
2018-09-04 03:30;82,5
2018-09-04 03:45;81,1
2018-09-04 04:00;82,5
2018-09-04 04:15;81,35
2018-09-04 04:30;83,3
2018-09-04 04:45;90,05
2018-09-04 05:00;96,25
2018-09-04 05:15;94,7
2018-09-04 05:30;97,05
2018-09-04 05:45;97,05
2018-09-04 06:00;95
2018-09-04 06:15;92,7
2018-09-04 06:30;91,9
2018-09-04 06:45;118,9
2018-09-04 07:00;120,3
2018-09-04 07:15;120,1
2018-09-04 07:30;169,85
2018-09-04 07:45;158,35
2018-09-04 08:00;167,1
2018-09-04 08:15;140,5
2018-09-04 08:30;155,05
2018-09-04 08:45;152,3
2018-09-04 09:00;166,85
2018-09-04 09:15;189,3
2018-09-04 09:30;180,1
2018-09-04 09:45;200,55
2018-09-04 10:00;199,1
2018-09-04 10:15;232,7
2018-09-04 10:30;233,85
2018-09-04 10:45;237,95
2018-09-04 11:00;255,5
2018-09-04 11:15;251,45
2018-09-04 11:30;256,15
2018-09-04 11:45;254
2018-09-04 12:00;257,3
2018-09-04 12:15;252,3
2018-09-04 12:30;254,8
2018-09-04 12:45;276,25
2018-09-04 13:00;248,05
2018-09-04 13:15;253,1
2018-09-04 13:30;241,5
2018-09-04 13:45;240,05
2018-09-04 14:00;233,15
2018-09-04 14:15;226,2
2018-09-04 14:30;231,25
2018-09-04 14:45;227,9
2018-09-04 15:00;226,35
2018-09-04 15:15;227,45
2018-09-04 15:30;218,7
2018-09-04 15:45;212,3
2018-09-04 16:00;205,45
2018-09-04 16:15;195,5
2018-09-04 16:30;188,95
2018-09-04 16:45;183,2
2018-09-04 17:00;173,75
2018-09-04 17:15;174,1
2018-09-04 17:30;169,95
2018-09-04 17:45;169,1
2018-09-04 18:00;160,45
2018-09-04 18:15;148,6
2018-09-04 18:30;144,85
2018-09-04 18:45;146,65
2018-09-04 19:00;143,2
2018-09-04 19:15;146,2
2018-09-04 19:30;141,9
2018-09-04 19:45;142,45
2018-09-04 20:00;130,1
2018-09-04 20:15;128,45
2018-09-04 20:30;127,2
2018-09-04 20:45;127,1
2018-09-04 21:00;122,35
2018-09-04 21:15;120,65
2018-09-04 21:30;117,85
2018-09-04 21:45;114,4
2018-09-04 22:00;108,05
2018-09-04 22:15;105,4
2018-09-04 22:30;102,85
2018-09-04 22:45;98,15
2018-09-04 23:00;101,1
2018-09-04 23:15;97,25
2018-09-04 23:30;97,2
2018-09-04 23:45;98,65
2018-09-05 00:00;92,6
2018-09-05 00:15;88,25
2018-09-05 00:30;81,5
2018-09-05 00:45;81,05
2018-09-05 01:00;82
2018-09-05 01:15;81,55
2018-09-05 01:30;82,85
2018-09-05 01:45;92,3
2018-09-05 02:00;90,65
2018-09-05 02:15;89,25
2018-09-05 02:30;89,1
2018-09-05 02:45;89,75
2018-09-05 03:00;89,25
2018-09-05 03:15;90,1
2018-09-05 03:30;90,9
2018-09-05 03:45;90,6
2018-09-05 04:00;91,2
2018-09-05 04:15;88,7
2018-09-05 04:30;90,1
2018-09-05 04:45;90,6
2018-09-05 05:00;91,1
2018-09-05 05:15;90,5
2018-09-05 05:30;92,9
2018-09-05 05:45;94,3
2018-09-05 06:00;93,25
2018-09-05 06:15;89,75
2018-09-05 06:30;90,1
2018-09-05 06:45;87,3
2018-09-05 07:00;91,55
2018-09-05 07:15;102,6
2018-09-05 07:30;122,8
2018-09-05 07:45;125,55
2018-09-05 08:00;123,45
2018-09-05 08:15;124,15
2018-09-05 08:30;128,8
2018-09-05 08:45;136,25
2018-09-05 09:00;149,15
2018-09-05 09:15;160,95
2018-09-05 09:30;165,1
2018-09-05 09:45;174,35
2018-09-05 10:00;183,75
2018-09-05 10:15;191,8
2018-09-05 10:30;206,65
2018-09-05 10:45;216,55
2018-09-05 11:00;232,85
2018-09-05 11:15;290,9
2018-09-05 11:30;289,15
2018-09-05 11:45;291,35
2018-09-05 12:00;267,8
2018-09-05 12:15;271,65
2018-09-05 12:30;273,9
2018-09-05 12:45;265,95
2018-09-05 13:00;281,2
2018-09-05 13:15;264,05
2018-09-05 13:30;282,05
2018-09-05 13:45;285,4
2018-09-05 14:00;257
2018-09-05 14:15;278,9
2018-09-05 14:30;269,1
2018-09-05 14:45;247,2
2018-09-05 15:00;256,65
2018-09-05 15:15;226,9
2018-09-05 15:30;220,85
2018-09-05 15:45;230,75
2018-09-05 16:00;200,65
2018-09-05 16:15;204,1
2018-09-05 16:30;215,95
2018-09-05 16:45;188,65
2018-09-05 17:00;196,85
2018-09-05 17:15;199,95
2018-09-05 17:30;168,7
2018-09-05 17:45;181,1
2018-09-05 18:00;175,3
2018-09-05 18:15;182,45
2018-09-05 18:30;159,4
2018-09-05 18:45;171,6
2018-09-05 19:00;154,45
2018-09-05 19:15;142,25
2018-09-05 19:30;138,45
2018-09-05 19:45;134,05
2018-09-05 20:00;134,25
2018-09-05 20:15;130,3
2018-09-05 20:30;130,85
2018-09-05 20:45;127,5
2018-09-05 21:00;118,8
2018-09-05 21:15;110,4
2018-09-05 21:30;111,5
2018-09-05 21:45;106
2018-09-05 22:00;102,4
2018-09-05 22:15;98,35
2018-09-05 22:30;97
2018-09-05 22:45;95,05
2018-09-05 23:00;98,65
2018-09-05 23:15;94,9
2018-09-05 23:30;94
2018-09-05 23:45;92,3
2018-09-06 00:00;89,2
2018-09-06 00:15;86,5
2018-09-06 00:30;87,1
2018-09-06 00:45;87,15
2018-09-06 01:00;86,5
2018-09-06 01:15;86,5
2018-09-06 01:30;85,55
2018-09-06 01:45;84,6
2018-09-06 02:00;91,4
2018-09-06 02:15;94,2
2018-09-06 02:30;93,8
2018-09-06 02:45;94,75
2018-09-06 03:00;93,6
2018-09-06 03:15;92,85
2018-09-06 03:30;94
2018-09-06 03:45;94,8
2018-09-06 04:00;95,15
2018-09-06 04:15;93,55
2018-09-06 04:30;93,2
2018-09-06 04:45;95,7
2018-09-06 05:00;94,3
2018-09-06 05:15;96,5
2018-09-06 05:30;97,5
2018-09-06 05:45;97,25
2018-09-06 06:00;97,95
2018-09-06 06:15;95,2
2018-09-06 06:30;94,65
2018-09-06 06:45;93,4
2018-09-06 07:00;95,5
2018-09-06 07:15;98,45
2018-09-06 07:30;150,1
2018-09-06 07:45;158,2
2018-09-06 08:00;177,85
2018-09-06 08:15;152,75
2018-09-06 08:30;162,6
2018-09-06 08:45;180,7
2018-09-06 09:00;171
2018-09-06 09:15;188,7
2018-09-06 09:30;193
2018-09-06 09:45;195
2018-09-06 10:00;209,5
2018-09-06 10:15;230,65
2018-09-06 10:30;219,75
2018-09-06 10:45;235,9
2018-09-06 11:00;251,9
2018-09-06 11:15;236,6
2018-09-06 11:30;255,5
2018-09-06 11:45;234,6
2018-09-06 12:00;250,6
2018-09-06 12:15;250,95
2018-09-06 12:30;265,05
2018-09-06 12:45;263,4
2018-09-06 13:00;267,65
2018-09-06 13:15;272,7
2018-09-06 13:30;268,55
2018-09-06 13:45;262,35
2018-09-06 14:00;258,2
2018-09-06 14:15;244,95
2018-09-06 14:30;260,2
2018-09-06 14:45;252,05
2018-09-06 15:00;235,75
2018-09-06 15:15;233,2
2018-09-06 15:30;233,05
2018-09-06 15:45;222,65
2018-09-06 16:00;213,85
2018-09-06 16:15;214,4
2018-09-06 16:30;206,15
2018-09-06 16:45;203,7
2018-09-06 17:00;194,2
2018-09-06 17:15;186,35
2018-09-06 17:30;175,6
2018-09-06 17:45;174,85
2018-09-06 18:00;176,65
2018-09-06 18:15;162,6
2018-09-06 18:30;166,45
2018-09-06 18:45;168,35
2018-09-06 19:00;156,95
2018-09-06 19:15;139,9
2018-09-06 19:30;154,35
2018-09-06 19:45;148,6
2018-09-06 20:00;138,85
2018-09-06 20:15;142,2
2018-09-06 20:30;128,5
2018-09-06 20:45;138,8
2018-09-06 21:00;130,4
2018-09-06 21:15;124,15
2018-09-06 21:30;126,05
2018-09-06 21:45;108,4
2018-09-06 22:00;117,75
2018-09-06 22:15;106,1
2018-09-06 22:30;101,35
2018-09-06 22:45;108,3
2018-09-06 23:00;102,6
2018-09-06 23:15;115,4
2018-09-06 23:30;106,2
2018-09-06 23:45;101,7
2018-09-07 00:00;91,65
2018-09-07 00:15;99,1
2018-09-07 00:30;103,9
2018-09-07 00:45;86,95
2018-09-07 01:00;99
2018-09-07 01:15;97,25
2018-09-07 01:30;89,7
2018-09-07 01:45;97,55
2018-09-07 02:00;86,15
2018-09-07 02:15;95,5
2018-09-07 02:30;97,75
2018-09-07 02:45;98,6
2018-09-07 03:00;109,9
2018-09-07 03:15;96,85
2018-09-07 03:30;107,45
2018-09-07 03:45;102,75
2018-09-07 04:00;114,15
2018-09-07 04:15;102,95
2018-09-07 04:30;112,45
2018-09-07 04:45;124,1
2018-09-07 05:00;143,95
2018-09-07 05:15;129,8
2018-09-07 05:30;125,3
2018-09-07 05:45;116,5
2018-09-07 06:00;123
2018-09-07 06:15;106,6
2018-09-07 06:30;117
2018-09-07 06:45;109,5
2018-09-07 07:00;111,8
2018-09-07 07:15;120,85
2018-09-07 07:30;108,6
2018-09-07 07:45;122
2018-09-07 08:00;109,35
2018-09-07 08:15;128,9
2018-09-07 08:30;128,05
2018-09-07 08:45;149,55
2018-09-07 09:00;152,1
2018-09-07 09:15;164,95
2018-09-07 09:30;159,7
2018-09-07 09:45;180,4
2018-09-07 10:00;191,25
2018-09-07 10:15;188,35
2018-09-07 10:30;208,8
2018-09-07 10:45;207,05
2018-09-07 11:00;222,2
2018-09-07 11:15;225,3
2018-09-07 11:30;217,15
2018-09-07 11:45;235,2
2018-09-07 12:00;239,7
2018-09-07 12:15;237,45
2018-09-07 12:30;240,6
2018-09-07 12:45;245,9
2018-09-07 13:00;239,05
2018-09-07 13:15;243,35
2018-09-07 13:30;241,7
2018-09-07 13:45;245,1
2018-09-07 14:00;244
2018-09-07 14:15;236,15
2018-09-07 14:30;241,7
2018-09-07 14:45;238,65
2018-09-07 15:00;230,45
2018-09-07 15:15;225
2018-09-07 15:30;227,1
2018-09-07 15:45;214,25
2018-09-07 16:00;205,45
2018-09-07 16:15;211,7
2018-09-07 16:30;202,55
2018-09-07 16:45;206,6
2018-09-07 17:00;197,55
2018-09-07 17:15;178,7
2018-09-07 17:30;181,4
2018-09-07 17:45;168,85
2018-09-07 18:00;169,55
2018-09-07 18:15;167,6
2018-09-07 18:30;165,1
2018-09-07 18:45;155,45
2018-09-07 19:00;158,45
2018-09-07 19:15;143,1
2018-09-07 19:30;133,3
2018-09-07 19:45;133,3
2018-09-07 20:00;128,55
2018-09-07 20:15;125,85
2018-09-07 20:30;123,5
2018-09-07 20:45;115,95
2018-09-07 21:00;116,25
2018-09-07 21:15;110,75
2018-09-07 21:30;112,4
2018-09-07 21:45;105,8
2018-09-07 22:00;101,05
2018-09-07 22:15;96,8
2018-09-07 22:30;96,15
2018-09-07 22:45;88,6
2018-09-07 23:00;88,8
2018-09-07 23:15;84,4
2018-09-07 23:30;83,65
2018-09-07 23:45;85,5
2018-09-08 00:00;81,95
2018-09-08 00:15;83,5
2018-09-08 00:30;84,3
2018-09-08 00:45;83,35
2018-09-08 01:00;80,95
2018-09-08 01:15;81,15
2018-09-08 01:30;80,6
2018-09-08 01:45;79,65
2018-09-08 02:00;81,75
2018-09-08 02:15;81,2
2018-09-08 02:30;78,8
2018-09-08 02:45;79
2018-09-08 03:00;78
2018-09-08 03:15;78,9
2018-09-08 03:30;81,2
2018-09-08 03:45;80,6
2018-09-08 04:00;79,3
2018-09-08 04:15;79,6
2018-09-08 04:30;80,9
2018-09-08 04:45;79,2
2018-09-08 05:00;79,95
2018-09-08 05:15;80,7
2018-09-08 05:30;80,05
2018-09-08 05:45;79,45
2018-09-08 06:00;79,35
2018-09-08 06:15;76,3
2018-09-08 06:30;77,3
2018-09-08 06:45;77,3
2018-09-08 07:00;75,3
2018-09-08 07:15;71,4
2018-09-08 07:30;69,55
2018-09-08 07:45;69,1
2018-09-08 08:00;68
2018-09-08 08:15;71,45
2018-09-08 08:30;73,7
2018-09-08 08:45;76,1
2018-09-08 09:00;74,25
2018-09-08 09:15;76,7
2018-09-08 09:30;77,4
2018-09-08 09:45;81,05
2018-09-08 10:00;82,2
2018-09-08 10:15;83,15
2018-09-08 10:30;84,3
2018-09-08 10:45;84,65
2018-09-08 11:00;86,4
2018-09-08 11:15;86,5
2018-09-08 11:30;87,55
2018-09-08 11:45;90,55
2018-09-08 12:00;88,6
2018-09-08 12:15;88,2
2018-09-08 12:30;87,5
2018-09-08 12:45;90,5
2018-09-08 13:00;88,45
2018-09-08 13:15;89,95
2018-09-08 13:30;87,3
2018-09-08 13:45;86,1
2018-09-08 14:00;89,4
2018-09-08 14:15;90,35
2018-09-08 14:30;91,65
2018-09-08 14:45;91,2
2018-09-08 15:00;89,3
2018-09-08 15:15;89,3
2018-09-08 15:30;86,65
2018-09-08 15:45;93,65
2018-09-08 16:00;92,8
2018-09-08 16:15;91,25
2018-09-08 16:30;87,45
2018-09-08 16:45;91,7
2018-09-08 17:00;95,05
2018-09-08 17:15;93,1
2018-09-08 17:30;96,3
2018-09-08 17:45;95,3
2018-09-08 18:00;94,85
2018-09-08 18:15;93,4
2018-09-08 18:30;92,7
2018-09-08 18:45;88,9
2018-09-08 19:00;90,7
2018-09-08 19:15;90,55
2018-09-08 19:30;89,35
2018-09-08 19:45;94,75
2018-09-08 20:00;94,55
2018-09-08 20:15;99,2
2018-09-08 20:30;101,7
2018-09-08 20:45;100,35
2018-09-08 21:00;97,55
2018-09-08 21:15;95,3
2018-09-08 21:30;96,05
2018-09-08 21:45;94,65
2018-09-08 22:00;91,3
2018-09-08 22:15;88,9
2018-09-08 22:30;88,3
2018-09-08 22:45;86,2
2018-09-08 23:00;86,3
2018-09-08 23:15;82,7
2018-09-08 23:30;82,9
2018-09-08 23:45;86,15
2018-09-09 00:00;78,45
2018-09-09 00:15;80,4
2018-09-09 00:30;78,8
2018-09-09 00:45;79,3
2018-09-09 01:00;78,4
2018-09-09 01:15;80,85
2018-09-09 01:30;78,1
2018-09-09 01:45;77
2018-09-09 02:00;76,8
2018-09-09 02:15;76,8
2018-09-09 02:30;77,8
2018-09-09 02:45;76,95
2018-09-09 03:00;80
2018-09-09 03:15;79
2018-09-09 03:30;77,85
2018-09-09 03:45;77,8
2018-09-09 04:00;78,85
2018-09-09 04:15;78
2018-09-09 04:30;80,8
2018-09-09 04:45;80,6
2018-09-09 05:00;78,5
2018-09-09 05:15;78,6
2018-09-09 05:30;79,95
2018-09-09 05:45;78,35
2018-09-09 06:00;78,4
2018-09-09 06:15;75,55
2018-09-09 06:30;75,85
2018-09-09 06:45;75,2
2018-09-09 07:00;73,1
2018-09-09 07:15;71,15
2018-09-09 07:30;68,55
2018-09-09 07:45;69,2
2018-09-09 08:00;71,9
2018-09-09 08:15;72,05
2018-09-09 08:30;74,75
2018-09-09 08:45;78,35
2018-09-09 09:00;77,65
2018-09-09 09:15;77,35
2018-09-09 09:30;77,75
2018-09-09 09:45;77,1
2018-09-09 10:00;78,85
2018-09-09 10:15;78,25
2018-09-09 10:30;81,2
2018-09-09 10:45;80,1
2018-09-09 11:00;80,25
2018-09-09 11:15;79,65
2018-09-09 11:30;82
2018-09-09 11:45;84,3
2018-09-09 12:00;86,25
2018-09-09 12:15;83,1
2018-09-09 12:30;84,7
2018-09-09 12:45;82,3
2018-09-09 13:00;82,35
2018-09-09 13:15;83,45
2018-09-09 13:30;83,75
2018-09-09 13:45;85,5
2018-09-09 14:00;84,65
2018-09-09 14:15;84,6
2018-09-09 14:30;83,1
2018-09-09 14:45;80,55
2018-09-09 15:00;82,1
2018-09-09 15:15;84,2
2018-09-09 15:30;82,7
2018-09-09 15:45;81,4
2018-09-09 16:00;80,75
2018-09-09 16:15;82,05
2018-09-09 16:30;88,15
2018-09-09 16:45;86,3
2018-09-09 17:00;84,5
2018-09-09 17:15;85,25
2018-09-09 17:30;86,05
2018-09-09 17:45;85,25
2018-09-09 18:00;81,7
2018-09-09 18:15;81,1
2018-09-09 18:30;80,9
2018-09-09 18:45;81
2018-09-09 19:00;82,3
2018-09-09 19:15;79,45
2018-09-09 19:30;80,45
2018-09-09 19:45;85,8
2018-09-09 20:00;92,9
2018-09-09 20:15;97,1
2018-09-09 20:30;95,25
2018-09-09 20:45;93,7
2018-09-09 21:00;96,95
2018-09-09 21:15;92,55
2018-09-09 21:30;93,55
2018-09-09 21:45;93,8
2018-09-09 22:00;88,1
2018-09-09 22:15;85,95
2018-09-09 22:30;83,85
2018-09-09 22:45;85
2018-09-09 23:00;88,1
2018-09-09 23:15;86,5
2018-09-09 23:30;83,05
2018-09-09 23:45;84,25

